Cape Girardeau, MO

3:55 AM CDT on April 23, 2017 (GMT -0500)
Cape Girardeau Regional

Weather History for KCGI - October, 2011

Change the Weather History Date:

Thursday, October 13, 2011

  Actual Average Record
Temperature  
Mean Temperature 62 °F 59 °F  
Max Temperature 75 °F 71 °F 92 °F (1989)
Min Temperature 49 °F 46 °F 29 °F (2006)
Degree Days  
Heating Degree Days 3 7  
Month to date heating degree days 44 79  
Since 1 July heating degree days 97 128  
Cooling Degree Days 0 1  
Month to date cooling degree days 15 20  
Year to date cooling degree days 1694 1442  
Growing Degree Days 12 (Base 50)    
Moisture  
Dew Point 54 °F    
Average Humidity 68    
Maximum Humidity 97    
Minimum Humidity 38    
Precipitation  
Precipitation 0.06 in 0.12 in 1.80 in (2001)
Month to date precipitation 0.47 1.51  
Year to date precipitation 57.33 35.84  
Sea Level Pressure  
Sea Level Pressure 29.67 in    
Wind  
Wind Speed 9 mph (West)    
Max Wind Speed 22 mph    
Max Gust Speed 29 mph    
Visibility 9 miles    
Events Rain    
T = Trace of Precipitation, MM = Missing Value Source: NWS Daily Summary

Daily Weather History Graph

Daily Weather History Graph

Search for Another Location

Airport or City:

Trip Planner

Search our weather history database for the weather conditions in past years. The results will help you decide how hot, cold, wet, or windy it might be!

Date:

Astronomy

Oct. 13, 2011 Rise Set
Actual Time 7:04 AM CDT 6:24 PM CDT
Civil Twilight 6:37 AM CDT 6:50 PM CDT
Nautical Twilight 6:07 AM CDT 7:20 PM CDT
Astronomical Twilight 5:37 AM CDT 7:50 PM CDT
Moon 7:03 PM CDT (10/13) 8:32 AM CDT (10/13)
Length of Visible Light 12h 12m
Length of Day
11h 20m
Full, 98% of the Moon is Illuminated
Oct 13
Full
Oct 19
Last Quarter
Oct 26
New
Nov 2
First Quarter
Nov 10
Full

Hourly Weather History & Observations

Time (CDT) Temp. Dew Point Humidity Pressure Visibility Wind Dir Wind Speed Gust Speed Precip Events Conditions
12:26 AM 62.6 °F 59.0 °F 88% 29.68 in 9.0 mi SSW 5.8 mph - N/A   Overcast
12:53 AM 62.6 °F 59.0 °F 88% 29.68 in 10.0 mi SSW 4.6 mph - N/A   Overcast
1:09 AM 62.6 °F 59.0 °F 88% 29.68 in 10.0 mi SSW 5.8 mph - N/A   Overcast
1:29 AM 62.6 °F 59.0 °F 88% 29.67 in 10.0 mi SW 6.9 mph - N/A   Overcast
1:53 AM 62.1 °F 59.0 °F 90% 29.66 in 10.0 mi SSW 5.8 mph - N/A   Overcast
2:40 AM 60.8 °F 59.0 °F 94% 29.64 in 9.0 mi Calm Calm - 0.05 in   Overcast
2:48 AM 62.6 °F 59.0 °F 88% 29.64 in 8.0 mi South 3.5 mph - 0.05 in   Overcast
2:49 AM 62.1 °F 59.0 °F 90% 29.63 in 8.0 mi South 3.5 mph - 0.05 in   Overcast
3:04 AM 62.6 °F 59.0 °F 88% 29.63 in 7.0 mi Calm Calm - N/A   Overcast
3:53 AM 61.0 °F 59.0 °F 93% 29.61 in 8.0 mi WSW 6.9 mph - N/A   Overcast
4:53 AM 59.0 °F 57.0 °F 93% 29.62 in 7.0 mi WSW 6.9 mph - N/A   Partly Cloudy
5:53 AM 59.0 °F 57.0 °F 93% 29.63 in 6.0 mi West 9.2 mph - N/A   Mostly Cloudy
6:53 AM 59.0 °F 57.0 °F 93% 29.65 in 10.0 mi WSW 8.1 mph - N/A   Overcast
7:53 AM 59.0 °F 55.9 °F 90% 29.65 in 9.0 mi West 6.9 mph - 0.01 in Rain Light Rain
8:53 AM 60.1 °F 57.0 °F 90% 29.66 in 10.0 mi West 8.1 mph - 0.00 in   Overcast
9:25 AM 60.8 °F 57.2 °F 88% 29.67 in 10.0 mi West 6.9 mph - 0.00 in   Overcast
9:53 AM 62.1 °F 57.9 °F 86% 29.66 in 10.0 mi WNW 9.2 mph - 0.00 in   Mostly Cloudy
10:53 AM 62.1 °F 57.0 °F 84% 29.67 in 10.0 mi WNW 8.1 mph - N/A   Overcast
11:10 AM 64.4 °F 55.4 °F 73% 29.67 in 10.0 mi NW 11.5 mph - N/A   Overcast
11:53 AM 64.9 °F 54.0 °F 68% 29.67 in 10.0 mi NW 16.1 mph 25.3 mph N/A   Mostly Cloudy
12:53 PM 68.0 °F 53.1 °F 59% 29.66 in 9.0 mi NW 16.1 mph 24.2 mph N/A   Scattered Clouds
1:53 PM 70.0 °F 52.0 °F 53% 29.65 in 10.0 mi NNW 18.4 mph 24.2 mph N/A   Scattered Clouds
2:53 PM 72.0 °F 52.0 °F 49% 29.63 in 10.0 mi NNW 8.1 mph 18.4 mph N/A   Mostly Cloudy
3:53 PM 73.9 °F 48.9 °F 41% 29.63 in 10.0 mi NW 15.0 mph 23.0 mph N/A   Scattered Clouds
4:53 PM 73.9 °F 46.9 °F 38% 29.64 in 10.0 mi NW 13.8 mph 24.2 mph N/A   Scattered Clouds
5:53 PM 70.0 °F 46.0 °F 42% 29.66 in 10.0 mi WNW 11.5 mph - N/A   Partly Cloudy
6:53 PM 64.4 °F 46.4 °F 52% 29.69 in 10.0 mi WNW 5.8 mph - N/A   Clear
7:53 PM 57.9 °F 48.0 °F 70% 29.70 in 10.0 mi WSW 4.6 mph - N/A   Clear
8:53 PM 54.0 °F 46.0 °F 75% 29.73 in 10.0 mi West 5.8 mph - N/A   Clear
9:53 PM 53.1 °F 45.0 °F 74% 29.74 in 10.0 mi West 6.9 mph - N/A   Clear
10:53 PM 52.0 °F 44.1 °F 74% 29.75 in 10.0 mi West 5.8 mph - N/A   Clear
11:53 PM 51.1 °F 44.1 °F 77% 29.76 in 10.0 mi West 6.9 mph - N/A   Clear